Flag for Germany Weather past 2 weeks in Burgdorf, Lower Saxony, Germany

Now
39 °F

Passing clouds.


Feels Like: 37 °F
Forecast: 35 / 58 °F
Wind: 3 mph from Northwest

Location: Celle Airport

Current Time: Apr 28, 2015 at 2:58:38 AM

Latest Report: Apr 28, 2015 at 2:20 AM


Visibility: N/A

Pressure: 29.83 "Hg

Humidity: 75%

Dew point: 32 °F

Location of BurgdorfLocation

Historic Weather in Burgdorf — Graph

°F

Burgdorf temperature yesterday

Maximum temperature yesterday: 52 °F (at 12:20 AM)
Minimum temperature yesterday: 43 °F (at 11:20 PM)
Average temperature yesterday: 48 °F

Past Weeks' High & Low Weather Summary

 TemperatureHumidityPressure
High73 °F (Apr 15, 4:20 PM)100% (Apr 19, 5:20 AM)30.42 "Hg (Apr 19, 5:20 AM)
Low32 °F (Apr 14, 4:20 AM)21% (Apr 21, 5:20 PM)29.62 "Hg (Apr 27, 4:20 AM)
Average50 °F67%30.07 "Hg
* Reported Apr 13 1:20 AM — Apr 28 1:20 AM, Burgdorf, Weather by CustomWeather, © 2015

Note: Actual official high and low records may vary slightly from our data, if they occured in-between our weather recording intervals... More about our weather records

Advertising

Burgdorf weather history for previous 24 hours

 ConditionsComfort  
Time TempWeatherWind HumidityBarometerVisibility
1:20 AM
Tue, Apr 28
41 °FPassing clouds.5 mph70%29.83 "HgN/A
12:20 AM43 °FPartly cloudy.7 mph71%29.83 "HgN/A
11:20 PM
Mon, Apr 27
43 °FPassing clouds.6 mph76%29.80 "HgN/A
10:20 PM46 °FPassing clouds.6 mph66%29.80 "HgN/A
9:20 PM46 °FBroken clouds.6 mph62%29.80 "HgN/A
8:20 PM48 °FPartly sunny.6 mph62%29.77 "HgN/A
7:20 PM50 °FPartly sunny.5 mph62%29.74 "HgN/A
6:20 PM50 °FBroken clouds.7 mph62%29.74 "HgN/A
5:20 PM52 °FBroken clouds.8 mph58%29.74 "HgN/A
4:20 PM50 °FBroken clouds.7 mph71%29.74 "HgN/A
3:20 PM50 °FBroken clouds.8 mph71%29.74 "HgN/A
2:20 PM48 °FPartly sunny.8 mph82%29.74 "HgN/A
1:20 PM46 °FBroken clouds.8 mph87%29.74 "HgN/A
12:20 PM46 °FBroken clouds.8 mph87%29.71 "HgN/A
11:20 AM45 °FLight rain. Broken clouds.9 mph93%29.71 "HgN/A
10:20 AM46 °FLight rain. Broken clouds.8 mph93%29.68 "HgN/A
9:20 AM46 °FLight rain. Broken clouds.7 mph93%29.65 "HgN/A
8:20 AM46 °FBroken clouds.8 mph93%29.65 "HgN/A
7:47 AM46 °FLight rain. Broken clouds.7 mph93%29.65 "Hg5 mi
7:20 AM46 °FLight rain. Cloudy.10 mph93%29.62 "Hg5 mi
6:20 AM46 °FLight rain. Fog.8 mph100%29.62 "Hg3 mi
5:48 AM48 °FRain. Fog.8 mph94%29.62 "Hg3 mi
5:20 AM48 °FLight rain. Fog.6 mph94%29.62 "Hg3 mi
4:20 AM48 °FLight rain. Fog.6 mph100%29.62 "Hg3 mi
3:20 AM50 °FLight rain. Fog.7 mph94%29.65 "Hg3 mi
2:20 AM52 °FLight rain. Partly cloudy.6 mph94%29.65 "Hg5 mi
Weather by CustomWeather, © 2015

See weather overviewHow to use our weather pages